Home   Weather   Raleigh   Past weeks

Flag for USA Past Weather in Raleigh, North Carolina, USA — Yesterday and Last 2 Weeks

Now
69 °F

Fog.


Feels Like: 69 °F
Forecast: 64 / 80 °F
Wind: No wind

Location: Raleigh-Durham International Airport

Current Time: Oct 1, 2016 at 4:54:21 AM

Latest Report: Oct 1, 2016 at 3:51 AM


Visibility: 6 mi

Pressure: 30.02 "Hg

Humidity: 93%

Dew Point: 67 °F

Location of RaleighLocation

Past Weather in Raleigh — Graph

°F

Raleigh Temperature Yesterday

Maximum temperature yesterday: 83 °F (at 3:51 PM)
Minimum temperature yesterday: 72 °F (at 10:51 PM)
Average temperature yesterday: 75 °F

High & Low Weather Summary for the Past Weeks

 TemperatureHumidityPressure
High91 °F (Sep 24, 2:51 PM)100% (Sep 18, 6:51 AM)30.24 "Hg (Sep 18, 6:51 AM)
Low65 °F (Sep 24, 4:51 AM)39% (Sep 24, 2:51 PM)29.87 "Hg (Sep 27, 5:51 PM)
Average74 °F84%30.03 "Hg
* Reported Sep 16 2:51 AM — Oct 1 2:51 AM, Raleigh, Weather by CustomWeather, © 2016

Note: Actual official high and low records may vary slightly from our data, if they occured in-between our weather recording intervals... More about our weather records

Advertising

Raleigh Weather History for the Previous 24 Hours

Scroll right to see more
 ConditionsComfort  
Time TempWeatherWind HumidityBarometerVisibility
2:51 AM
Sat, Oct 1
70 °FPassing clouds.7 mph97%30.01 "Hg7 mi
1:51 AM72 °FPassing clouds.3 mph93%30.02 "Hg7 mi
12:51 AM72 °FLow clouds.No wind97%30.02 "Hg10 mi
11:51 PM
Fri, Sep 30
72 °FLow clouds.5 mph93%30.02 "Hg10 mi
10:51 PM72 °FPassing clouds.6 mph93%30.01 "Hg10 mi
9:51 PM73 °FPassing clouds.6 mph94%30.00 "Hg10 mi
8:51 PM74 °FPassing clouds.6 mph88%29.98 "Hg10 mi
7:51 PM75 °FPartly cloudy.6 mph90%29.97 "Hg10 mi
6:51 PM77 °FBroken clouds.7 mph85%29.97 "Hg10 mi
5:51 PM80 °FThunderstorms. Broken clouds.9 mph79%29.96 "Hg10 mi
4:51 PM82 °FBroken clouds.10 mph67%29.94 "Hg10 mi
3:51 PM83 °FBroken clouds.8 mph68%29.95 "Hg10 mi
2:51 PM80 °FBroken clouds.12 mph71%29.96 "Hg10 mi
1:51 PM79 °FPartly sunny.14 mph77%29.98 "Hg10 mi
12:51 PM79 °FPartly sunny.13 mph79%30.02 "Hg10 mi
11:51 AM77 °FBroken clouds.8 mph79%30.01 "Hg10 mi
10:51 AM73 °FBroken clouds.10 mph88%30.02 "Hg10 mi
9:51 AM74 °FThunderstorms. Fog.7 mph91%30.01 "Hg6 mi
8:51 AM75 °FMostly cloudy.10 mph88%29.99 "Hg7 mi
7:51 AM73 °FFog.8 mph94%30.00 "Hg6 mi
6:51 AM73 °FPassing clouds.6 mph94%29.99 "Hg7 mi
5:51 AM73 °FFog.6 mph97%29.98 "Hg5 mi
4:51 AM73 °FPassing clouds.3 mph94%29.98 "Hg8 mi
Weather by CustomWeather, © 2016

See weather overviewHow to use our weather pages